Lexington Weather

Lexington, Massachusetts, USA

68°F
7/3/2020 1:34pm 
  • Lexington Conditions: Overcast
  • Temperature: 68.4°F / 20.2°CWarmer 0.6°F than last hour.
  • Dew Point: 63.7°FDecreased 0.2°Fsince last hour.
  • Relative Humidity: 85%Decreased 2.0% since last hour.
  • Wind: Wind from NNE NNE 2 mph, 10-min avg: 1 mph, gust: 4 mph
  • Barometer: 29.86 in Steady
  • Visibility: 10 miles
  • Rain Today: 0.00 in
  •   

Regional Weather Roundup
for Boston / Norton, MA

        
000
ASUS41 KBOX 300104
RWRBOX

REGIONAL WEATHER ROUNDUP
NATIONAL WEATHER SERVICE BOSTON/NORTON MA
900 PM EDT MON JUN 29 2020

NOTE:  "FAIR" INDICATES FEW OR NO CLOUDS BELOW 12,000 FEET WITH NO 
SIGNIFICANT WEATHER AND/OR OBSTRUCTIONS TO VISIBILITY.

MAZALL-300200-
EASTERN MASSACHUSETTS
  
CITY           SKY/WX    TMP DP  RH WIND       PRES   REMARKS
BOSTON         RAIN      64  63  96 N8        29.86S                  
BEVERLY        LGT RAIN  63  62  97 N5        29.85F                  
LAWRENCE       LGT RAIN  63  62  97 NE5       29.88S                  
BEDFORD        LGT RAIN  66  63  90 NE7       29.85R                  
BLUE HILL        N/A     62  62 100 NE7       29.85S                  
NORWOOD        CLOUDY    67  63  87 NE6       29.85R FOG              
MARSHFIELD     CLOUDY    68  68 100 NE9       29.85S                  
PLYMOUTH       CLOUDY    65  64  97 NE12      29.84S FOG              
TAUNTON        CLOUDY    67  64  90 VRB5      29.84R                  
NEW BEDFORD    CLOUDY    67  65  93 N7        29.83R                  
$$

MAZALL-300200-
CAPE COD AND THE ISLANDS
  
CITY           SKY/WX    TMP DP  RH WIND       PRES   REMARKS
FALMOUTH       CLOUDY    66  66 100 N7        29.83R                  
HYANNIS        CLOUDY    68  64  87 NE9       29.82R                  
CHATHAM        CLOUDY    64  62  93 NE5       29.84R FOG              
PROVINCETOWN   TSTM      65  65 100 NE10      29.86R                  
NANTUCKET      CLOUDY    65  62  90 NE13      29.80F                  
MARTHAS VNYRD  CLOUDY    67  65  93 N8        29.82R                  
$$
 
MAZALL-300200-
CENTRAL AND WESTERN MASSACHUSETTS
  
CITY           SKY/WX    TMP DP  RH WIND       PRES   REMARKS
WORCESTER      CLOUDY    66  64  93 NW3       29.88R                  
FITCHBURG      MOCLDY    67  62  84 N3        29.88R                  
ORANGE         CLOUDY    67  64  90 CALM      29.89S                  
SPRINGFIELD    MOCLDY    67  66  97 N8        29.86R                  
WESTFIELD      MOCLDY    67  65  93 NW9       29.87S                  
NORTH ADAMS    CLOUDY    68  63  84 CALM      29.89S                  
PITTSFIELD     CLOUDY    65  63  93 CALM      29.89S                  
$$
 
RIZALL-300200-
RHODE ISLAND
  
CITY           SKY/WX    TMP DP  RH WIND       PRES   REMARKS
PROVIDENCE     MOCLDY    69  65  86 N7        29.85R                  
NEWPORT        PTCLDY    68  64  87 N3        29.84R                  
BLOCK ISLAND   PTCLDY    64  62  93 W6        29.86R                  
SMITHFIELD     PTCLDY    65  65 100 N6        29.87R                  
WESTERLY       MOCLDY    70  65  84 CALM      29.85R                  
$$
 
CTZALL-300200-
CONNECTICUT
  
CITY           SKY/WX    TMP DP  RH WIND       PRES   REMARKS
BRADLEY INTL   MOCLDY    68  64  87 N5        29.86R                  
HARTFORD       PTCLDY    71  64  78 N3        29.85R                  
BRIDGEPORT     MOCLDY    71  62  73 CALM      29.85R                  
DANBURY        CLOUDY    68  63  84 CALM      29.88S                  
GROTON         PTCLDY    66  64  93 CALM      29.84R                  
NEW HAVEN      PTCLDY    67  64  90 CALM      29.86R                  
CHESTER        FAIR      66  64  94 CALM      29.86R                  
MERIDEN        NOT AVBL                                               
WILLIMANTIC    PTCLDY    68  67  96 CALM      29.86R                  
OXFORD         MOCLDY    65  65 100 N5        29.89R                  
$$

MEZ002-015-021-024-NHZ003-005-008-011-012-014-VTZ005-008-300200-
NORTHERN NEW ENGLAND
  
CITY           SKY/WX    TMP DP  RH WIND       PRES   REMARKS
PORTLAND ME    CLOUDY    64  61  90 N7        29.91S                  
BANGOR ME      CLOUDY    67  64  90 NE8       29.93F                  
CONCORD NH     CLOUDY    64  63  96 NE6       29.89R FOG              
MANCHESTER NH  LGT RAIN  66  63  90 E5        29.86S                  
NASHUA NH      CLOUDY    67  65  93 NE6       29.87S                  
PORTSMOUTH NH  DRIZZLE   64  63  97 NE8       29.87  FOG              
JAFFREY NH     CLOUDY    64  61  90 VRB3      29.90S                  
KEENE NH       CLOUDY    66  63  90 N5        29.89S                  
BURLINGTON VT  LGT RAIN  68  65  90 N12       29.93S FOG              
MT. WASHINGTON LGT RAIN  48  48 100 E24         N/A  VSB 1/16         
$$

NYZ052-076-300200-
EASTERN NEW YORK
  
CITY           SKY/WX    TMP DP  RH WIND       PRES   REMARKS
ALBANY         MOCLDY    70  62  76 N10       29.90S                  
NEW YORK CITY  PTCLDY    75  64  68 N5        29.86R                  
$$
 
ANZALL-300200-
MARINE OBSERVATIONS
  
STATION/POSITION TIME  TEMP    WIND        PRES    VSBY  WAVE
                       AIR SEA DIR/SP/G                  HT/PER
                 (UTC) (F)     (DEG/KT/KT) (MB)    (MI)  (FT/S)
BOSTON BUOY      0050   65 66   60/  8/ 10 1009.7R         2/ 5
BUZZARDS BAY     0000           20/ 15/ 16 1010.0F
NANTUCKET SOUND  0050   65 71   50/ 12/ 14 1009.0R         1/ 4
MASS BAY-STELLWA 0004   63     130/  6/  8 1008.7R  1 7/8  3/11
ISLE OF SHOALS   0000   65      80/ 15/ 15 1010.8R
S OF BLOCK IS    0026      71                N/A           3/10
$$

......................KEY.........................
  SKY/WX - SKY CONDITION/PRESENT WEATHER
  TMP    - TEMPERATURE IN FAHRENHEIT
  DWPT   - DEWPOINT IN FAHRENHEIT
  RH     - RELATIVE HUMIDITY IN PERCENT
  WIND   - DIRECTION AND SPEED IN MPH
  PRES   - MEAN SEA LEVEL PRESSURE IN INCHES OF HG
  WCI    - WIND CHILL INDEX
  VSB    - VISIBILITY IN MILES
  HX     - HEAT INDEX
  TC     - TEMPERATURE IN CELSIUS
  VRB    - VARIABLE WIND DIRECTION
  N/A    - NOT AVAILABLE
  
      

Other recent Regional Weather Roundups

Fri Jul 3, 1:04pm

Fri Jul 3, 12:04pm

Fri Jul 3, 11:04am

Fri Jul 3, 10:04am

Fri Jul 3, 9:04am

Fri Jul 3, 8:04am

Fri Jul 3, 7:04am

Fri Jul 3, 6:04am

Fri Jul 3, 5:04am

Fri Jul 3, 4:04am

Fri Jul 3, 3:04am

Fri Jul 3, 2:04am

Fri Jul 3, 1:04am

Fri Jul 3, 12:04am

Thu Jul 2, 11:05pm

Thu Jul 2, 10:04pm

Thu Jul 2, 9:04pm

Thu Jul 2, 8:04pm

Thu Jul 2, 7:05pm

Thu Jul 2, 6:04pm

Thu Jul 2, 5:05pm

Thu Jul 2, 4:04pm

Thu Jul 2, 3:04pm

Thu Jul 2, 2:04pm

Thu Jul 2, 1:05pm

Thu Jul 2, 12:04pm

Thu Jul 2, 11:04am

Thu Jul 2, 10:05am

Thu Jul 2, 9:05am

Thu Jul 2, 8:04am

Thu Jul 2, 7:04am

Thu Jul 2, 6:05am

Thu Jul 2, 5:04am

Thu Jul 2, 4:04am

Thu Jul 2, 3:04am

Thu Jul 2, 2:04am

Thu Jul 2, 1:04am

Thu Jul 2, 12:05am

Wed Jul 1, 11:05pm

Wed Jul 1, 10:04pm

Wed Jul 1, 9:04pm

Wed Jul 1, 8:04pm

Wed Jul 1, 7:04pm

Wed Jul 1, 6:04pm

Wed Jul 1, 5:05pm

Wed Jul 1, 4:04pm

Wed Jul 1, 3:04pm

Wed Jul 1, 2:04pm

Wed Jul 1, 1:04pm

Wed Jul 1, 12:04pm

Wed Jul 1, 11:04am

Wed Jul 1, 10:04am

Wed Jul 1, 9:04am

Wed Jul 1, 8:05am

Wed Jul 1, 7:04am

Wed Jul 1, 6:04am

Wed Jul 1, 5:04am

Wed Jul 1, 4:04am

Wed Jul 1, 3:04am

Wed Jul 1, 2:04am

Wed Jul 1, 1:04am

Wed Jul 1, 12:04am

Tue Jun 30, 11:04pm

Tue Jun 30, 10:05pm

Tue Jun 30, 9:04pm

Tue Jun 30, 8:05pm

Tue Jun 30, 7:05pm

Tue Jun 30, 6:04pm

Tue Jun 30, 5:04pm

Tue Jun 30, 4:04pm

Tue Jun 30, 3:04pm

Tue Jun 30, 2:04pm

Tue Jun 30, 1:04pm

Tue Jun 30, 12:04pm

Tue Jun 30, 11:04am

Tue Jun 30, 10:04am

Tue Jun 30, 9:04am

Tue Jun 30, 8:04am

Tue Jun 30, 7:04am

Tue Jun 30, 6:04am

Tue Jun 30, 5:04am

Tue Jun 30, 4:04am

Tue Jun 30, 3:04am

Tue Jun 30, 2:04am

Tue Jun 30, 1:04am

Tue Jun 30, 12:04am

Mon Jun 29, 11:04pm

Mon Jun 29, 10:05pm

Mon Jun 29, 8:05pm

Mon Jun 29, 7:04pm

Mon Jun 29, 6:04pm

Mon Jun 29, 5:04pm

Mon Jun 29, 4:05pm

Mon Jun 29, 3:04pm

Mon Jun 29, 2:04pm

Mon Jun 29, 1:04pm

Mon Jun 29, 12:04pm

Mon Jun 29, 11:04am

Mon Jun 29, 10:04am

Mon Jun 29, 9:04am

Mon Jun 29, 8:04am

Mon Jun 29, 7:04am

Mon Jun 29, 6:04am

Mon Jun 29, 5:04am

Mon Jun 29, 4:04am

Mon Jun 29, 3:04am

Mon Jun 29, 2:04am

Mon Jun 29, 1:04am

Mon Jun 29, 12:04am

Sun Jun 28, 11:05pm

Sun Jun 28, 10:04pm

Sun Jun 28, 9:05pm

Sun Jun 28, 8:04pm

Sun Jun 28, 7:04pm

Sun Jun 28, 6:04pm

Sun Jun 28, 5:04pm

Sun Jun 28, 4:04pm

Sun Jun 28, 3:04pm

Sun Jun 28, 2:05pm

Sun Jun 28, 1:04pm

Sun Jun 28, 12:04pm

Sun Jun 28, 11:04am

Sun Jun 28, 10:04am

Sun Jun 28, 9:04am

Sun Jun 28, 8:04am

Sun Jun 28, 7:04am

Sun Jun 28, 6:04am

Sun Jun 28, 5:04am

Sun Jun 28, 4:04am

Sun Jun 28, 3:04am

Sun Jun 28, 2:05am

Sun Jun 28, 1:04am

Sun Jun 28, 12:05am

Sat Jun 27, 11:04pm

Sat Jun 27, 10:04pm

Sat Jun 27, 9:04pm

Sat Jun 27, 8:04pm

Sat Jun 27, 7:04pm

Sat Jun 27, 6:04pm

Sat Jun 27, 5:04pm

Sat Jun 27, 4:05pm

Sat Jun 27, 3:04pm

Sat Jun 27, 2:04pm

Sat Jun 27, 1:05pm

Sat Jun 27, 12:04pm

Sat Jun 27, 11:04am

Sat Jun 27, 10:04am

Sat Jun 27, 9:04am

Sat Jun 27, 8:04am

Sat Jun 27, 7:04am

Sat Jun 27, 6:04am

Sat Jun 27, 5:05am

Sat Jun 27, 4:04am

Sat Jun 27, 3:04am

Sat Jun 27, 2:04am

Sat Jun 27, 1:04am

Sat Jun 27, 12:04am

Fri Jun 26, 11:04pm

Fri Jun 26, 10:04pm

Fri Jun 26, 9:05pm

Fri Jun 26, 8:04pm

Fri Jun 26, 7:05pm

Fri Jun 26, 6:04pm

Fri Jun 26, 5:04pm

Fri Jun 26, 4:04pm

Fri Jun 26, 3:04pm

Fri Jun 26, 2:05pm

Meta data:

ID: db9cd976-8102-4042-b517-03525d3d15ca
Link: https://api.weather.gov/products/db9cd976-8102-4042-b517-03525d3d15ca